#timestamp,LO_Frequency,Hit,StdDev 
1618010655.0,286047046.9,P
1618010655.9,286047046.9,P
1618010675.7,286047049.1,P
1618010695.6,286047046.5,Y
1618010715.4,286047002.7,P
1618010735.3,286047001.9,N
1618010755.1,286047001.9,N
1618010756.0,286047001.9,N
1618010775.8,286047004.2,N
1618010795.7,286047004.4,N
1618010815.5,286047002.9,N
1618010835.3,286047002.9,N
1618010855.2,286047005.5,N
1618010875.0,286047003.4,N
1618010875.9,286047003.4,N
1618010895.8,286047006.0,N
1618010915.6,286047005.5,N
1618010935.4,286047004.5,N
1618010955.3,286047006.3,N
1618010975.1,286047008.7,N
1618010995.9,286047007.5,N
1618011015.7,286047005.1,N
1618011035.5,286047007.1,N
1618011055.4,286047004.5,N
1618011075.2,286047006.6,N
1618011095.0,286047007.1,N
1618011095.9,286047007.1,N
1618011115.8,286047006.7,N
1618011135.6,286047009.2,N
1618011155.4,286047008.3,N
1618011175.3,286047010.7,N
1618011195.1,286047010.0,N
1618011215.9,286047009.8,N
1618011235.7,286047009.7,N
1618011255.5,286047012.0,Y
1618011275.4,286047003.0,P
1618011295.2,286047005.4,P
1618011315.1,286047005.3,P
1618011316.0,286047005.3,Y
1618011335.8,286047002.4,P
1618011355.6,286047002.6,N
1618011375.5,286047002.3,N
1618011395.3,286047004.2,Y
1618011415.1,286046998.3,P
1618011435.9,286046998.6,N
1618011455.7,286047000.9,N
1618011475.6,286047000.1,N
1618011495.4,286047002.7,N
1618011515.2,286047002.7,N
1618011535.1,286047002.1,N
1618011536.0,286047002.1,N
1618011555.8,286047002.8,N
1618011575.7,286046999.7,N
1618011595.5,286047001.8,N
1618011615.3,286047002.0,N
1618011635.2,286047001.5,N
1618011655.0,286047004.4,N
1618011655.9,286047004.4,N
1618011675.7,286047000.1,N
1618011695.6,286047000.1,N
1618011715.4,286047002.8,N
1618011735.3,286047000.5,N
1618011755.1,286047000.1,N
1618011756.0,286047000.1,N
1618011775.8,286047000.2,N
1618011795.7,286046999.9,N
1618011815.5,286047000.3,N
1618011835.3,286047000.0,N
1618011855.2,286047001.9,N
1618011875.0,286047002.5,N
1618011875.9,286047002.5,N
1618011895.8,286047000.0,N
1618011915.6,286047001.6,N
1618011935.4,286047004.2,N
1618011955.3,286047001.9,N
1618011975.1,286047001.7,N
1618011995.8,286047001.9,N
1618012015.7,286046999.8,N
1618012035.5,286047002.5,N
1618012055.4,286047002.3,N
1618012075.2,286047002.2,N
1618012095.0,286046999.7,N
1618012095.9,286046999.7,N
1618012115.8,286047001.3,N
1618012135.6,286047001.6,N
1618012155.5,286047001.9,N
1618012175.3,286047002.5,N
1618012195.1,286047002.5,N
1618012215.9,286047003.3,N
1618012235.7,286047004.4,Y
1618012255.5,286047002.5,P
1618012275.4,286047002.5,P
1618012295.2,286047001.6,N
1618012315.1,286047002.3,Y
1618012316.0,286047002.3,P
1618012335.8,286047001.1,P
1618012355.6,286047000.7,N
1618012375.5,286047001.2,N
1618012395.3,286047000.0,N
1618012415.1,286047000.3,N
1618012435.9,286047000.9,N
1618012455.7,286047000.0,N
1618012475.6,286047000.4,N
1618012525.4,286046999.8,E
1618012535.3,286047002.8,N
1618012555.2,286047002.6,P
1618012575.0,286047002.7,P
1618012575.9,286047002.7,Y
1618012595.8,286047000.6,P
1618012615.6,286047000.6,N
1618012635.4,286046996.6,P
1618012655.3,286046999.3,N
1618012675.1,286046998.3,N
1618012695.9,286046996.5,N
1618012715.7,286046998.8,N
1618012735.5,286046998.4,N
1618012755.4,286046999.1,N
1618012775.2,286046998.4,N
1618012795.0,286046999.5,N
1618012795.9,286046999.5,N
